Regional Weather Roundup
Issued by NWS

Home | Current Version | Previous Version | Text Only | Print | Product List | Glossary Off
Versions: 1 2 3 4 5 6 7 8 9 10 11 12 13 14 15 16 17 18 19 20 21 22 23 24 25 26 27 28 29 30 31 32 33 34 35 36 37 38 39 40 41 42 43 44 45 46 47 48 49 50

000
ASUS45 KSLC 222110
RWRUT

UTAH REGIONAL WEATHER ROUNDUP
NATIONAL WEATHER SERVICE SALT LAKE CITY UT
300 PM MDT FRI AUG 22 2014

UTZ001>011-023>025-222200-

NORTHERN UTAH

CITY           SKY/WX    TMP DP  RH WIND       PRES   REMARKS
HILL AFB       LGT RAIN  70  55  60 NW18      29.98F
LOGAN          MOSUNNY   65  53  65 N18       30.04F
OGDEN          LGT RAIN  69  55  60 NW14      29.97S
PROVO AIRPORT  MOSUNNY   81  45  28 S12       29.92F
SALT LAKE CITY TSTM      67  56  67 NW16G36   29.95R
VERNAL         MOSUNNY   78  46  32 W5        30.01F
WENDOVER       CLOUDY    70  52  52 E12       29.97F
HEBER CITY     MOSUNNY   81  43  26 W16       29.97F
WEST JORDAN    CLOUDY    72  55  56 S10G24    29.96R

$$

UTZ012>022-026-027-222200-

SOUTHERN UTAH

CITY           SKY/WX    TMP DP  RH WIND       PRES   REMARKS
BRYCE CANYON   LGT RAIN  61  50  67 S7        30.22S
CEDAR CITY     CLOUDY    78  44  29 SW17G24   30.07F
MILFORD        MOSUNNY   83  44  25 SW15G26   30.00F
MOAB/CYNLANDS  MOSUNNY   80  48  32 S13       29.99F
PRICE          PTSUNNY   76  43  30 MISG      30.06F
ST GEORGE      PTCLDY    84  52  32 W7        29.97F
KANAB            N/A     79  48  34 S10G17    30.11F

$$

REGIONAL REPORTS     COLORADO/ARIZONA

CITY           SKY/WX    TMP DP  RH WIND       PRES   REMARKS
CRAIG, CO      RAIN      61  53  75 NW7       30.12R
GRAND JUNCTION CLOUDY    76  48  37 SW9       30.03F
RIFLE          CLOUDY    74  47  38 CALM      30.07F
MONTROSE       CLOUDY    73  51  46 N5        30.11F
CORTEZ         PTSUNNY   63  52  67 VRB5      30.15R
PAGE, AZ       MOSUNNY   80  49  33 CALM      30.03F
GRAND CANYON   MOSUNNY   68  48  48 S15G215   30.22F
KINGMAN        MOSUNNY   81  55  40 MISG      30.04F
FLAGSTAFF      PTSUNNY   66  47  50 SW15      30.25F

$$

REGIONAL REPORTS    NEVADA/IDAHO/WYOMING

CITY           SKY/WX    TMP DP  RH WIND       PRES   REMARKS
LAS VEGAS, NV  MOSUNNY   91  49  23 S10G25    29.86F
ELY            PTSUNNY   75  39  27 S20G35    30.02F
ELKO           MOSUNNY   77  33  20 S14       29.95F
POCATELLO, ID  LGT RAIN  60  51  72 E8        30.01F
BURLEY         TSTM      66  56  70 NW6       29.95R
EVANSTON, WY   PTSUNNY   63  48  58 N22G29    30.10F
ROCK SPRINGS   LGT RAIN  69  48  47 NW13      30.06F

$$


USA.gov is the U.S. government's official web portal to all federal, state and local government web resources and services.